Kayseri, Turkey

6:20 PM +03 on November 19, 2017 (GMT +0300)
Erkilet Air Base

Weather History for LTAU - October, 2013

Change the Weather History Date:

Saturday, October 19, 2013

  Actual Average Record
Temperature  
Mean Temperature 46 °F -  
Max Temperature 54 °F 58 °F 84 °F (2004)
Min Temperature 39 °F 33 °F 30 °F (2011)
Degree Days  
Heating Degree Days 18    
Moisture  
Dew Point 41 °F    
Average Humidity 81    
Maximum Humidity 93    
Minimum Humidity 58    
Precipitation  
Precipitation 0.47 in - - ()
Sea Level Pressure  
Sea Level Pressure 30.12 in    
Wind  
Wind Speed 9 mph ()    
Max Wind Speed 20 mph    
Max Gust Speed -    
Visibility 6.3 miles    
Events Rain    
Averages and records for this station are not official NWS values.
T = Trace of Precipitation, MM = Missing Value Source: Averaged Metar Reports

Daily Weather History Graph

Daily Weather History Graph

Search for Another Location

Airport or City:

Trip Planner

Search our weather history database for the weather conditions in past years. The results will help you decide how hot, cold, wet, or windy it might be!

Date:

Astronomy

Oct. 19, 2013 Rise Set
Actual Time 6:51 AM EEST 5:54 PM EEST
Civil Twilight 6:24 AM EEST 6:21 PM EEST
Nautical Twilight 5:53 AM EEST 6:52 PM EEST
Astronomical Twilight 5:22 AM EEST 7:23 PM EEST
Moon 6:09 PM EEST 7:07 AM EEST
Length of Visible Light 11h 56m
Length of Day
11h 02m
Full, 100% of the Moon is Illuminated
Oct 19
Full
Oct 27
Last Quarter
Nov 3
New
Nov 10
First Quarter
Nov 17
Full

Hourly Weather History & Observations

Time (EEST) Temp. Windchill Dew Point Humidity Pressure Visibility Wind Dir Wind Speed Gust Speed Precip Events Conditions
12:20 AM 48.2 °F - 42.8 °F 82% 29.89 in 6.2 mi WSW 16.1 mph - N/A   Mostly Cloudy
12:50 AM 48.2 °F - 42.8 °F 82% 29.92 in 6.2 mi WSW 16.1 mph - N/A Rain Light Rain Showers
1:20 AM 46.4 °F 40.4 °F 42.8 °F 87% 29.92 in 6.2 mi WSW 13.8 mph - N/A Rain Light Rain Showers
1:50 AM 46.4 °F 40.4 °F 42.8 °F 87% 29.95 in 6.2 mi WSW 13.8 mph - N/A Rain Light Rain Showers
2:20 AM 46.4 °F 40.4 °F 42.8 °F 87% 29.95 in 6.2 mi WSW 13.8 mph - N/A Rain Light Rain Showers
2:50 AM 46.4 °F 41.9 °F 42.8 °F 87% 29.95 in 6.2 mi WSW 9.2 mph - N/A   Mostly Cloudy
3:00 AM 47 °F - 43 °F 81%  in 12 mi WSW 9.2 mph - - Rain Light Rain Showers
3:20 AM 48.2 °F - 42.8 °F 82% 29.95 in 6.2 mi WSW 12.7 mph - N/A   Mostly Cloudy
3:50 AM 46.4 °F 41.5 °F 42.8 °F 87% 29.98 in 6.2 mi West 10.4 mph - N/A   Mostly Cloudy
4:20 AM 46.4 °F 41.9 °F 42.8 °F 87% 29.98 in 6.2 mi WSW 9.2 mph - N/A   Mostly Cloudy
4:50 AM 46.4 °F 42.9 °F 42.8 °F 87% 30.01 in 6.2 mi WSW 6.9 mph - N/A Rain Light Rain Showers
5:20 AM 46.4 °F 43.5 °F 42.8 °F 87% 30.01 in 6.2 mi WSW 5.8 mph - N/A Rain Light Rain Showers
5:50 AM 46.4 °F 43.5 °F 42.8 °F 87% 30.01 in 6.2 mi WSW 5.8 mph - N/A   Mostly Cloudy
6:20 AM 46.4 °F 42.4 °F 41.0 °F 81% 30.04 in 6.2 mi WSW 8.1 mph - N/A   Mostly Cloudy
6:50 AM 46.4 °F 42.9 °F 42.8 °F 87% 30.04 in 6.2 mi West 6.9 mph - N/A   Mostly Cloudy
7:20 AM 46.4 °F 42.9 °F 41.0 °F 81% 30.04 in 6.2 mi West 6.9 mph - N/A   Mostly Cloudy
7:50 AM 46.4 °F 42.9 °F 41.0 °F 81% 30.06 in 6.2 mi West 6.9 mph - N/A   Mostly Cloudy
8:20 AM 46.4 °F 43.5 °F 42.8 °F 87% 30.06 in 6.2 mi WSW 5.8 mph - N/A   Mostly Cloudy
8:50 AM 48.2 °F - 42.8 °F 82% 30.09 in 6.2 mi WSW 4.6 mph - N/A   Mostly Cloudy
9:00 AM 48 °F - 42 °F 75%  in 12 mi WSW 4.6 mph - -   Partly Cloudy
9:20 AM 48.2 °F - 41.0 °F 76% 30.09 in 6.2 mi West 8.1 mph - N/A   Mostly Cloudy
9:50 AM 48.2 °F - 41.0 °F 76% 30.09 in 6.2 mi West 9.2 mph - N/A   Mostly Cloudy
10:20 AM 48.2 °F - 42.8 °F 82% 30.12 in 6.2 mi West 12.7 mph - N/A   Mostly Cloudy
10:45 AM 48.2 °F - 42.8 °F 82% 30.12 in 6.2 mi WSW 12.7 mph - N/A Rain Light Rain Showers
10:50 AM 48.2 °F - 41.0 °F 76% 30.12 in 6.2 mi West 15.0 mph - N/A Rain Light Rain Showers
11:20 AM 48.2 °F - 42.8 °F 82% 30.15 in 6.2 mi West 11.5 mph - N/A   Mostly Cloudy
11:50 AM 51.8 °F - 42.8 °F 71% 30.15 in 6.2 mi WSW 11.5 mph - N/A   Mostly Cloudy
12:20 PM 53.6 °F - 41.0 °F 62% 30.12 in 6.2 mi West 11.5 mph - N/A   Mostly Cloudy
12:50 PM 53.6 °F - 39.2 °F 58% 30.12 in 6.2 mi West 9.2 mph - N/A   Mostly Cloudy
1:20 PM 48.2 °F - 41.0 °F 76% 30.15 in 6.2 mi WSW 8.1 mph - N/A   Mostly Cloudy
1:45 PM 50.0 °F - 42.8 °F 76% 30.15 in 6.2 mi WNW 15.0 mph - N/A Rain Light Rain Showers
1:50 PM 48.2 °F - 41.0 °F 76% 30.15 in 6.2 mi WNW 15.0 mph - N/A Rain Light Rain Showers
2:20 PM 50.0 °F - 41.0 °F 71% 30.15 in 6.2 mi Variable 1.2 mph - N/A Rain Light Rain Showers
2:50 PM 50.0 °F - 41.0 °F 71% 30.15 in 6.2 mi West 15.0 mph - N/A Rain Light Rain Showers
3:00 PM 50 °F - 41 °F 63%  in 6 mi West 15.0 mph - - Rain Light Rain Showers
3:20 PM 48.2 °F - 41.0 °F 76% 30.18 in 6.2 mi SW 6.9 mph - N/A   Mostly Cloudy
3:50 PM 53.6 °F - 41.0 °F 62% 30.15 in 6.2 mi WSW 9.2 mph - N/A   Mostly Cloudy
4:14 PM 46.4 °F 39.5 °F 39.2 °F 76% 30.18 in 6.2 mi WNW 17.3 mph - N/A Rain Light Rain Showers
4:20 PM 44.6 °F 37.8 °F 39.2 °F 81% 30.18 in 6.2 mi WNW 15.0 mph - N/A Rain Light Rain Showers
4:50 PM 48.2 °F - 42.8 °F 82% 30.18 in 6.2 mi WNW 6.9 mph - N/A   Mostly Cloudy
5:05 PM 44.6 °F 36.6 °F 35.6 °F 71% 30.21 in 6.2 mi WNW 19.6 mph - N/A Rain Light Rain Showers
5:20 PM 42.8 °F - 39.2 °F 87% 30.21 in 6.2 mi Variable 1.2 mph - N/A Rain Light Rain Showers
5:50 PM 42.8 °F 41.1 °F 39.2 °F 87% 30.21 in 5.6 mi South 3.5 mph - N/A Rain Light Rain Showers
6:20 PM 42.8 °F 40.1 °F 41.0 °F 93% 30.21 in 5.0 mi SSE 4.6 mph - N/A   Mostly Cloudy
6:50 PM 42.8 °F - 41.0 °F 93% 30.24 in 6.2 mi South 2.3 mph - N/A   Mostly Cloudy
7:20 PM 41.0 °F - 39.2 °F 93% 30.24 in 6.2 mi Calm Calm - N/A   Mostly Cloudy
7:50 PM 41.0 °F 39.0 °F 39.2 °F 93% 30.24 in 6.2 mi NNE 3.5 mph - N/A   Mostly Cloudy
8:20 PM 39.2 °F - 37.4 °F 93% 30.27 in 5.0 mi Calm Calm - N/A   Mostly Cloudy
8:50 PM 39.2 °F - 37.4 °F 93% 30.27 in 5.0 mi West 2.3 mph - N/A   Mostly Cloudy
9:00 PM 39 °F - 38 °F 93%  in 5 mi West 2.3 mph - -   Mist
9:20 PM 41.0 °F - 39.2 °F 93% 30.30 in 6.2 mi Calm Calm - N/A   Mostly Cloudy
9:50 PM 42.8 °F 38.6 °F 41.0 °F 93% 30.30 in 6.2 mi WSW 6.9 mph - N/A   Mostly Cloudy
10:20 PM 46.4 °F 41.9 °F 39.2 °F 76% 30.30 in 6.2 mi West 9.2 mph - N/A   Mostly Cloudy
10:50 PM 46.4 °F 43.5 °F 37.4 °F 71% 30.30 in 6.2 mi West 5.8 mph - N/A   Mostly Cloudy
11:20 PM 46.4 °F 42.4 °F 35.6 °F 66% 30.30 in 6.2 mi Variable 8.1 mph - N/A   Mostly Cloudy
11:50 PM 44.6 °F - 37.4 °F 76% 30.30 in 6.2 mi Variable 2.3 mph - N/A   Mostly Cloudy